Year,Month,Day,Hour,Minute,Value (Times are PST for temperature in C)
2010,06,13,00,00,13.80
2010,06,13,00,01,13.80
2010,06,13,00,02,13.80
2010,06,13,00,03,13.80
2010,06,13,00,04,13.70
2010,06,13,00,05,13.70
2010,06,13,00,06,13.70
2010,06,13,00,07,13.70
2010,06,13,00,08,13.70
2010,06,13,00,09,13.70
2010,06,13,00,10,13.70
2010,06,13,00,11,13.60
2010,06,13,00,12,13.60
2010,06,13,00,13,13.60
2010,06,13,00,14,13.60
2010,06,13,00,15,13.60
2010,06,13,00,16,13.60
2010,06,13,00,17,13.60
2010,06,13,00,18,13.60
2010,06,13,00,19,13.60
2010,06,13,00,20,13.60
2010,06,13,00,21,13.60
2010,06,13,00,22,13.60
2010,06,13,00,23,13.60
2010,06,13,00,24,13.60
2010,06,13,00,25,13.60
2010,06,13,00,26,13.50
2010,06,13,00,27,13.50
2010,06,13,00,28,13.50
2010,06,13,00,29,13.50
2010,06,13,00,30,13.50
2010,06,13,00,31,13.50
2010,06,13,00,32,13.50
2010,06,13,00,33,13.50
2010,06,13,00,34,13.50
2010,06,13,00,35,13.50
2010,06,13,00,36,13.50
2010,06,13,00,37,13.50
2010,06,13,00,38,13.50
2010,06,13,00,39,13.50
2010,06,13,00,40,13.50
2010,06,13,00,41,13.50
2010,06,13,00,42,13.50
2010,06,13,00,43,13.50
2010,06,13,00,44,13.50
2010,06,13,00,45,13.50
2010,06,13,00,46,13.40
2010,06,13,00,47,13.40
2010,06,13,00,48,13.40
2010,06,13,00,49,13.40
2010,06,13,00,50,13.30
2010,06,13,00,51,13.30
2010,06,13,00,52,13.30
2010,06,13,00,53,13.30
2010,06,13,00,54,13.30
2010,06,13,00,55,13.30
2010,06,13,00,56,13.30
2010,06,13,00,57,13.30
2010,06,13,00,58,13.30
2010,06,13,00,59,13.30
2010,06,13,01,00,13.30
2010,06,13,01,01,13.30
2010,06,13,01,02,13.30
2010,06,13,01,03,13.20
2010,06,13,01,04,13.20
2010,06,13,01,05,13.20
2010,06,13,01,06,13.10
2010,06,13,01,07,13.10
2010,06,13,01,08,13.10
2010,06,13,01,09,13.10
2010,06,13,01,10,13.10
2010,06,13,01,11,13.10
2010,06,13,01,12,13.10
2010,06,13,01,13,13.10
2010,06,13,01,14,13.10
2010,06,13,01,15,13.20
2010,06,13,01,16,13.20
2010,06,13,01,17,13.20
2010,06,13,01,18,13.20
2010,06,13,01,19,13.20
2010,06,13,01,20,13.20
2010,06,13,01,21,13.20
2010,06,13,01,22,13.20
2010,06,13,01,23,13.20
2010,06,13,01,24,13.20
2010,06,13,01,25,13.20
2010,06,13,01,26,13.20
2010,06,13,01,27,13.20
2010,06,13,01,28,13.20
2010,06,13,01,29,13.20
2010,06,13,01,30,13.10
2010,06,13,01,31,13.10
2010,06,13,01,32,13.00
2010,06,13,01,33,13.00
2010,06,13,01,34,12.90
2010,06,13,01,35,12.90
2010,06,13,01,36,12.80
2010,06,13,01,37,12.80
2010,06,13,01,38,12.80
2010,06,13,01,39,12.70
2010,06,13,01,40,12.70
2010,06,13,01,41,12.70
2010,06,13,01,42,12.60
2010,06,13,01,43,12.60
2010,06,13,01,44,12.60
2010,06,13,01,45,12.60
2010,06,13,01,46,12.60
2010,06,13,01,47,12.50
2010,06,13,01,48,12.50
2010,06,13,01,49,12.50
2010,06,13,01,50,12.50
2010,06,13,01,51,12.50
2010,06,13,01,52,12.60
2010,06,13,01,53,12.60
2010,06,13,01,54,12.60
2010,06,13,01,55,12.60
2010,06,13,01,56,12.60
2010,06,13,01,57,12.60
2010,06,13,01,58,12.60
2010,06,13,01,59,12.70
2010,06,13,02,00,12.70
2010,06,13,02,01,12.70
2010,06,13,02,02,12.70
2010,06,13,02,03,12.70
2010,06,13,02,04,12.70
2010,06,13,02,05,12.70
2010,06,13,02,06,12.70
2010,06,13,02,07,12.70
2010,06,13,02,08,12.60
2010,06,13,02,09,12.60
2010,06,13,02,10,12.50
2010,06,13,02,11,12.50
2010,06,13,02,12,12.50
2010,06,13,02,13,12.50
2010,06,13,02,14,12.50
2010,06,13,02,15,12.40
2010,06,13,02,16,12.40
2010,06,13,02,17,12.40
2010,06,13,02,18,12.30
2010,06,13,02,19,12.30
2010,06,13,02,20,12.30
2010,06,13,02,21,12.30
2010,06,13,02,22,12.30
2010,06,13,02,23,12.20
2010,06,13,02,24,12.20
2010,06,13,02,25,12.20
2010,06,13,02,26,12.20
2010,06,13,02,27,12.20
2010,06,13,02,28,12.10
2010,06,13,02,29,12.10
2010,06,13,02,30,12.10
2010,06,13,02,31,12.10
2010,06,13,02,32,12.10
2010,06,13,02,33,12.10
2010,06,13,02,34,12.10
2010,06,13,02,35,12.10
2010,06,13,02,36,12.10
2010,06,13,02,37,12.20
2010,06,13,02,38,12.20
2010,06,13,02,39,12.20
2010,06,13,02,40,12.30
2010,06,13,02,41,12.30
2010,06,13,02,42,12.40
2010,06,13,02,43,12.50
2010,06,13,02,44,12.50
2010,06,13,02,45,12.60
2010,06,13,02,46,12.60
2010,06,13,02,47,12.70
2010,06,13,02,48,12.70
2010,06,13,02,49,12.70
2010,06,13,02,50,12.70
2010,06,13,02,51,12.80
2010,06,13,02,52,12.80
2010,06,13,02,53,12.80
2010,06,13,02,54,12.80
2010,06,13,02,55,12.80
2010,06,13,02,56,12.80
2010,06,13,02,57,12.80
2010,06,13,02,58,12.80
2010,06,13,02,59,12.80
2010,06,13,03,00,12.80
2010,06,13,03,01,12.80
2010,06,13,03,02,12.70
2010,06,13,03,03,12.70
2010,06,13,03,04,12.70
2010,06,13,03,05,12.70
2010,06,13,03,06,12.70
2010,06,13,03,07,12.60
2010,06,13,03,08,12.60
2010,06,13,03,09,12.60
2010,06,13,03,10,12.60
2010,06,13,03,11,12.50
2010,06,13,03,12,12.50
2010,06,13,03,13,12.50
2010,06,13,03,14,12.50
2010,06,13,03,15,12.50
2010,06,13,03,16,12.40
2010,06,13,03,17,12.40
2010,06,13,03,18,12.40
2010,06,13,03,19,12.40
2010,06,13,03,20,12.30
2010,06,13,03,21,12.30
2010,06,13,03,22,12.30
2010,06,13,03,23,12.30
2010,06,13,03,24,12.30
2010,06,13,03,25,12.30
2010,06,13,03,26,12.30
2010,06,13,03,27,12.20
2010,06,13,03,28,12.20
2010,06,13,03,29,12.20
2010,06,13,03,30,12.20
2010,06,13,03,31,12.20
2010,06,13,03,32,12.20
2010,06,13,03,33,12.10
2010,06,13,03,34,12.10
2010,06,13,03,35,12.10
2010,06,13,03,36,12.10
2010,06,13,03,37,12.10
2010,06,13,03,38,12.00
2010,06,13,03,39,12.00
2010,06,13,03,40,12.00
2010,06,13,03,41,12.00
2010,06,13,03,42,12.00
2010,06,13,03,43,11.90
2010,06,13,03,44,11.90
2010,06,13,03,45,11.90
2010,06,13,03,46,11.90
2010,06,13,03,47,11.80
2010,06,13,03,48,11.80
2010,06,13,03,49,11.80
2010,06,13,03,50,11.80
2010,06,13,03,51,11.80
2010,06,13,03,52,11.80
2010,06,13,03,53,11.70
2010,06,13,03,54,11.70
2010,06,13,03,55,11.70
2010,06,13,03,56,11.70
2010,06,13,03,57,11.70
2010,06,13,03,58,11.70
2010,06,13,03,59,11.70
2010,06,13,04,00,11.80
2010,06,13,04,01,11.80
2010,06,13,04,02,11.80
2010,06,13,04,03,11.80
2010,06,13,04,04,11.90
2010,06,13,04,05,11.90
2010,06,13,04,06,11.90
2010,06,13,04,07,11.90
2010,06,13,04,08,11.90
2010,06,13,04,09,12.00
2010,06,13,04,10,11.90
2010,06,13,04,11,11.90
2010,06,13,04,12,11.90
2010,06,13,04,13,11.90
2010,06,13,04,14,11.90
2010,06,13,04,15,11.90
2010,06,13,04,16,11.90
2010,06,13,04,17,11.90
2010,06,13,04,18,11.90
2010,06,13,04,19,11.80
2010,06,13,04,20,11.80
2010,06,13,04,21,11.70
2010,06,13,04,22,11.60
2010,06,13,04,23,11.60
2010,06,13,04,24,11.50
2010,06,13,04,25,11.40
2010,06,13,04,26,11.40
2010,06,13,04,27,11.40
2010,06,13,04,28,11.40
2010,06,13,04,29,11.30
2010,06,13,04,30,11.30
2010,06,13,04,31,11.20
2010,06,13,04,32,11.20
2010,06,13,04,33,11.10
2010,06,13,04,34,11.10
2010,06,13,04,35,11.10
2010,06,13,04,36,11.10
2010,06,13,04,37,11.10
2010,06,13,04,38,11.10
2010,06,13,04,39,11.00
2010,06,13,04,40,10.90
2010,06,13,04,41,10.90
2010,06,13,04,42,10.90
2010,06,13,04,43,10.90
2010,06,13,04,44,10.90
2010,06,13,04,45,10.90
2010,06,13,04,46,10.90
2010,06,13,04,47,10.90
2010,06,13,04,48,10.90
2010,06,13,04,49,10.90
2010,06,13,04,50,10.90
2010,06,13,04,51,10.90
2010,06,13,04,52,11.10
2010,06,13,04,53,11.10
2010,06,13,04,54,11.10
2010,06,13,04,55,11.10
2010,06,13,04,56,11.10
2010,06,13,04,57,11.10
2010,06,13,04,58,11.10
2010,06,13,04,59,11.10
2010,06,13,05,00,11.10
2010,06,13,05,01,11.20
2010,06,13,05,02,11.20
2010,06,13,05,03,11.20
2010,06,13,05,04,11.20
2010,06,13,05,05,11.20
2010,06,13,05,06,11.20
2010,06,13,05,07,11.20
2010,06,13,05,08,11.10
2010,06,13,05,09,11.10
2010,06,13,05,10,11.10
2010,06,13,05,11,11.10
2010,06,13,05,12,11.10
2010,06,13,05,13,11.10
2010,06,13,05,14,11.10
2010,06,13,05,15,11.10
2010,06,13,05,16,11.10
2010,06,13,05,17,11.10
2010,06,13,05,18,11.10
2010,06,13,05,19,11.10
2010,06,13,05,20,11.10
2010,06,13,05,21,11.10
2010,06,13,05,22,11.20
2010,06,13,05,23,11.20
2010,06,13,05,24,11.20
2010,06,13,05,25,11.20
2010,06,13,05,26,11.20
2010,06,13,05,27,11.20
2010,06,13,05,28,11.20
2010,06,13,05,29,11.20
2010,06,13,05,30,11.20
2010,06,13,05,31,11.20
2010,06,13,05,32,11.20
2010,06,13,05,33,11.20
2010,06,13,05,34,11.20
2010,06,13,05,35,11.20
2010,06,13,05,36,11.30
2010,06,13,05,37,11.30
2010,06,13,05,38,11.30
2010,06,13,05,39,11.40
2010,06,13,05,40,11.40
2010,06,13,05,41,11.40
2010,06,13,05,42,11.40
2010,06,13,05,43,11.40
2010,06,13,05,44,11.40
2010,06,13,05,45,11.40
2010,06,13,05,46,11.40
2010,06,13,05,47,11.40
2010,06,13,05,48,11.40
2010,06,13,05,49,11.40
2010,06,13,05,50,11.60
2010,06,13,05,51,11.60
2010,06,13,05,52,11.60
2010,06,13,05,53,11.60
2010,06,13,05,54,11.70
2010,06,13,05,55,11.80
2010,06,13,05,56,11.80
2010,06,13,05,57,11.80
2010,06,13,05,58,11.90
2010,06,13,05,59,12.00
2010,06,13,06,00,12.00
2010,06,13,06,01,12.10
2010,06,13,06,02,12.20
2010,06,13,06,03,12.30
2010,06,13,06,04,12.30
2010,06,13,06,05,12.30
2010,06,13,06,06,12.40
2010,06,13,06,07,12.40
2010,06,13,06,08,12.40
2010,06,13,06,09,12.40
2010,06,13,06,10,12.50
2010,06,13,06,11,12.50
2010,06,13,06,12,12.50
2010,06,13,06,13,12.50
2010,06,13,06,14,12.40
2010,06,13,06,15,12.40
2010,06,13,06,16,12.40
2010,06,13,06,17,12.50
2010,06,13,06,18,12.40
2010,06,13,06,19,12.40
2010,06,13,06,20,12.50
2010,06,13,06,21,12.50
2010,06,13,06,22,12.50
2010,06,13,06,23,12.60
2010,06,13,06,24,12.60
2010,06,13,06,25,12.70
2010,06,13,06,26,12.80
2010,06,13,06,27,12.80
2010,06,13,06,28,12.90
2010,06,13,06,29,13.00
2010,06,13,06,30,13.10
2010,06,13,06,31,13.10
2010,06,13,06,32,13.20
2010,06,13,06,33,13.30
2010,06,13,06,34,13.30
2010,06,13,06,35,13.30
2010,06,13,06,36,13.40
2010,06,13,06,37,13.50
2010,06,13,06,38,13.50
2010,06,13,06,39,13.60
2010,06,13,06,40,13.60
2010,06,13,06,41,13.70
2010,06,13,06,42,13.70
2010,06,13,06,43,13.70
2010,06,13,06,44,13.80
2010,06,13,06,45,13.90
2010,06,13,06,46,14.00
2010,06,13,06,47,14.00
2010,06,13,06,48,14.10
2010,06,13,06,49,14.20
2010,06,13,06,50,14.20
2010,06,13,06,51,14.30
2010,06,13,06,52,14.40
2010,06,13,06,53,14.50
2010,06,13,06,54,14.50
2010,06,13,06,55,14.50
2010,06,13,06,56,14.60
2010,06,13,06,57,14.60
2010,06,13,06,58,14.70
2010,06,13,06,59,14.80
2010,06,13,07,00,14.80
2010,06,13,07,01,14.80
2010,06,13,07,02,14.90
2010,06,13,07,03,15.00
2010,06,13,07,04,15.10
2010,06,13,07,05,15.20
2010,06,13,07,06,15.30
2010,06,13,07,07,15.30
2010,06,13,07,08,15.30
2010,06,13,07,09,15.30
2010,06,13,07,10,15.30
2010,06,13,07,11,15.30
2010,06,13,07,12,15.20
2010,06,13,07,13,15.20
2010,06,13,07,14,15.10
2010,06,13,07,15,15.10
2010,06,13,07,16,15.10
2010,06,13,07,17,15.00
2010,06,13,07,18,15.00
2010,06,13,07,19,14.90
2010,06,13,07,20,14.90
2010,06,13,07,21,14.80
2010,06,13,07,22,14.80
2010,06,13,07,23,14.80
2010,06,13,07,24,14.80
2010,06,13,07,25,14.80
2010,06,13,07,26,14.70
2010,06,13,07,27,14.70
2010,06,13,07,28,14.60
2010,06,13,07,29,14.60
2010,06,13,07,30,14.60
2010,06,13,07,31,14.50
2010,06,13,07,32,14.40
2010,06,13,07,33,14.40
2010,06,13,07,34,14.30
2010,06,13,07,35,14.30
2010,06,13,07,36,14.30
2010,06,13,07,37,14.20
2010,06,13,07,38,14.20
2010,06,13,07,39,14.20
2010,06,13,07,40,14.20
2010,06,13,07,41,14.20
2010,06,13,07,42,14.20
2010,06,13,07,43,14.20
2010,06,13,07,44,14.20
2010,06,13,07,45,14.20
2010,06,13,07,46,14.20
2010,06,13,07,47,14.20
2010,06,13,07,48,14.30
2010,06,13,07,49,14.30
2010,06,13,07,50,14.30
2010,06,13,07,51,14.30
2010,06,13,07,52,14.30
2010,06,13,07,53,14.40
2010,06,13,07,54,14.40
2010,06,13,07,55,14.40
2010,06,13,07,56,14.40
2010,06,13,07,57,14.50
2010,06,13,07,58,14.50
2010,06,13,07,59,14.50
2010,06,13,08,00,14.60
2010,06,13,08,01,14.60
2010,06,13,08,02,14.60
2010,06,13,08,03,14.70
2010,06,13,08,04,14.70
2010,06,13,08,05,14.70
2010,06,13,08,06,14.80
2010,06,13,08,07,14.80
2010,06,13,08,08,14.80
2010,06,13,08,09,14.90
2010,06,13,08,10,15.00
2010,06,13,08,11,15.00
2010,06,13,08,12,15.10
2010,06,13,08,13,15.20
2010,06,13,08,14,15.20
2010,06,13,08,15,15.30
2010,06,13,08,16,15.30
2010,06,13,08,17,15.30
2010,06,13,08,18,15.40
2010,06,13,08,19,15.50
2010,06,13,08,20,15.50
2010,06,13,08,21,15.50
2010,06,13,08,22,15.60
2010,06,13,08,23,15.60
2010,06,13,08,24,15.60
2010,06,13,08,25,15.60
2010,06,13,08,26,15.70
2010,06,13,08,27,15.70
2010,06,13,08,28,15.70
2010,06,13,08,29,15.70
2010,06,13,08,30,15.70
2010,06,13,08,31,15.70
2010,06,13,08,32,15.70
2010,06,13,08,33,15.60
2010,06,13,08,34,15.60
2010,06,13,08,35,15.50
2010,06,13,08,36,15.50
2010,06,13,08,37,15.40
2010,06,13,08,38,15.30
2010,06,13,08,39,15.20
2010,06,13,08,40,15.20
2010,06,13,08,41,15.10
2010,06,13,08,42,15.00
2010,06,13,08,43,15.00
2010,06,13,08,44,14.90
2010,06,13,08,45,14.90
2010,06,13,08,46,14.90
2010,06,13,08,47,14.90
2010,06,13,08,48,14.90
2010,06,13,08,49,14.90
2010,06,13,08,50,14.90
2010,06,13,08,51,15.00
2010,06,13,08,52,15.00
2010,06,13,08,53,15.10
2010,06,13,08,54,15.10
2010,06,13,08,55,15.10
2010,06,13,08,56,15.20
2010,06,13,08,57,15.20
2010,06,13,08,58,15.30
2010,06,13,08,59,15.30
2010,06,13,09,00,15.30
2010,06,13,09,01,15.40
2010,06,13,09,02,15.40
2010,06,13,09,03,15.40
2010,06,13,09,04,15.50
2010,06,13,09,05,15.50
2010,06,13,09,06,15.50
2010,06,13,09,07,15.50
2010,06,13,09,08,15.50
2010,06,13,09,09,15.50
2010,06,13,09,10,15.50
2010,06,13,09,11,15.50
2010,06,13,09,12,15.50
2010,06,13,09,13,15.60
2010,06,13,09,14,15.60
2010,06,13,09,15,15.60
2010,06,13,09,16,15.50
2010,06,13,09,17,15.50
2010,06,13,09,18,15.50
2010,06,13,09,19,15.50
2010,06,13,09,20,15.60
2010,06,13,09,21,15.60
2010,06,13,09,22,15.50
2010,06,13,09,23,15.50
2010,06,13,09,24,15.40
2010,06,13,09,25,15.40
2010,06,13,09,26,15.40
2010,06,13,09,27,15.40
2010,06,13,09,28,15.40
2010,06,13,09,29,15.30
2010,06,13,09,30,15.30
2010,06,13,09,31,15.30
2010,06,13,09,32,15.30
2010,06,13,09,33,15.30
2010,06,13,09,34,15.30
2010,06,13,09,35,15.30
2010,06,13,09,36,15.30
2010,06,13,09,37,15.20
2010,06,13,09,38,15.10
2010,06,13,09,39,15.10
2010,06,13,09,40,15.10
2010,06,13,09,41,15.10
2010,06,13,09,42,15.00
2010,06,13,09,43,15.00
2010,06,13,09,44,15.00
2010,06,13,09,45,15.00
2010,06,13,09,46,14.90
2010,06,13,09,47,14.90
2010,06,13,09,48,14.90
2010,06,13,09,49,14.80
2010,06,13,09,50,14.80
2010,06,13,09,51,14.80
2010,06,13,09,52,14.80
2010,06,13,09,53,14.80
2010,06,13,09,54,14.70
2010,06,13,09,55,14.70
2010,06,13,09,56,14.60
2010,06,13,09,57,14.60
2010,06,13,09,58,14.60
2010,06,13,09,59,14.60
2010,06,13,10,00,14.60
2010,06,13,10,01,14.60
2010,06,13,10,02,14.60
2010,06,13,10,03,14.60
2010,06,13,10,04,14.60
2010,06,13,10,05,14.50
2010,06,13,10,06,14.30
2010,06,13,10,07,14.20
2010,06,13,10,08,14.10
2010,06,13,10,09,14.10
2010,06,13,10,10,14.10
2010,06,13,10,11,14.00
2010,06,13,10,12,14.00
2010,06,13,10,13,14.00
2010,06,13,10,14,14.10
2010,06,13,10,15,14.10
2010,06,13,10,16,14.00
2010,06,13,10,17,14.00
2010,06,13,10,18,14.00
2010,06,13,10,19,14.10
2010,06,13,10,20,14.20
2010,06,13,10,21,14.20
2010,06,13,10,22,14.20
2010,06,13,10,23,14.20
2010,06,13,10,24,14.20
2010,06,13,10,25,14.20
2010,06,13,10,26,14.30
2010,06,13,10,27,14.40
2010,06,13,10,28,14.50
2010,06,13,10,29,14.60
2010,06,13,10,30,14.60
2010,06,13,10,31,14.60
2010,06,13,10,32,14.60
2010,06,13,10,33,14.70
2010,06,13,10,34,14.80
2010,06,13,10,35,14.90
2010,06,13,10,36,15.00
2010,06,13,10,37,15.10
2010,06,13,10,38,15.10
2010,06,13,10,39,15.20
2010,06,13,10,40,15.20
2010,06,13,10,41,15.30
2010,06,13,10,42,15.40
2010,06,13,10,43,15.50
2010,06,13,10,44,15.60
2010,06,13,10,45,15.60
2010,06,13,10,46,15.60
2010,06,13,10,47,15.70
2010,06,13,10,48,15.60
2010,06,13,10,49,15.50
2010,06,13,10,50,15.50
2010,06,13,10,51,15.50
2010,06,13,10,52,15.50
2010,06,13,10,53,15.50
2010,06,13,10,54,15.50
2010,06,13,10,55,15.50
2010,06,13,10,56,15.50
2010,06,13,10,57,15.50
2010,06,13,10,58,15.60
2010,06,13,10,59,15.60
2010,06,13,11,00,15.70
2010,06,13,11,01,15.80
2010,06,13,11,02,15.80
2010,06,13,11,03,15.80
2010,06,13,11,04,16.00
2010,06,13,11,05,16.10
2010,06,13,11,06,16.20
2010,06,13,11,07,16.30
2010,06,13,11,08,16.40
2010,06,13,11,09,16.60
2010,06,13,11,10,16.70
2010,06,13,11,11,16.70
2010,06,13,11,12,16.90
2010,06,13,11,13,17.00
2010,06,13,11,14,17.10
2010,06,13,11,15,17.20
2010,06,13,11,16,17.30
2010,06,13,11,17,17.30
2010,06,13,11,18,17.40
2010,06,13,11,19,17.50
2010,06,13,11,20,17.70
2010,06,13,11,21,17.90
2010,06,13,11,22,17.90
2010,06,13,11,23,18.00
2010,06,13,11,24,18.10
2010,06,13,11,25,18.20
2010,06,13,11,26,18.20
2010,06,13,11,27,18.20
2010,06,13,11,28,18.30
2010,06,13,11,29,18.20
2010,06,13,11,30,18.10
2010,06,13,11,31,17.90
2010,06,13,11,32,17.80
2010,06,13,11,33,17.70
2010,06,13,11,34,17.70
2010,06,13,11,35,17.60
2010,06,13,11,36,17.70
2010,06,13,11,37,17.70
2010,06,13,11,38,17.80
2010,06,13,11,39,17.90
2010,06,13,11,40,17.90
2010,06,13,11,41,17.90
2010,06,13,11,42,17.90
2010,06,13,11,43,17.90
2010,06,13,11,44,17.90
2010,06,13,11,45,17.90
2010,06,13,11,46,18.00
2010,06,13,11,47,18.20
2010,06,13,11,48,18.20
2010,06,13,11,49,18.20
2010,06,13,11,50,18.20
2010,06,13,11,51,18.20
2010,06,13,11,52,18.20
2010,06,13,11,53,18.20
2010,06,13,11,54,18.30
2010,06,13,11,55,18.30
2010,06,13,11,56,18.30
2010,06,13,11,57,18.30
2010,06,13,11,58,18.40
2010,06,13,11,59,18.40
2010,06,13,12,00,18.50
2010,06,13,12,01,18.50
2010,06,13,12,02,18.60
2010,06,13,12,03,18.60
2010,06,13,12,04,18.60
2010,06,13,12,05,18.60
2010,06,13,12,06,18.60
2010,06,13,12,07,18.60
2010,06,13,12,08,18.60
2010,06,13,12,09,18.70
2010,06,13,12,10,18.60
2010,06,13,12,11,18.60
2010,06,13,12,12,18.60
2010,06,13,12,13,18.70
2010,06,13,12,14,18.70
2010,06,13,12,15,18.70
2010,06,13,12,16,18.70
2010,06,13,12,17,18.70
2010,06,13,12,18,18.80
2010,06,13,12,19,18.90
2010,06,13,12,20,18.90
2010,06,13,12,21,19.10
2010,06,13,12,22,19.10
2010,06,13,12,23,19.10
2010,06,13,12,24,19.10
2010,06,13,12,25,19.00
2010,06,13,12,26,18.90
2010,06,13,12,27,18.90
2010,06,13,12,28,18.90
2010,06,13,12,29,18.90
2010,06,13,12,30,18.90
2010,06,13,12,31,18.90
2010,06,13,12,32,18.90
2010,06,13,12,33,18.90
2010,06,13,12,34,18.90
2010,06,13,12,35,18.90
2010,06,13,12,36,18.90
2010,06,13,12,37,18.90
2010,06,13,12,38,18.90
2010,06,13,12,39,18.80
2010,06,13,12,40,18.80
2010,06,13,12,41,18.80
2010,06,13,12,42,18.80
2010,06,13,12,43,18.70
2010,06,13,12,44,18.70
2010,06,13,12,45,18.70
2010,06,13,12,46,18.70
2010,06,13,12,47,18.60
2010,06,13,12,48,18.60
2010,06,13,12,49,18.50
2010,06,13,12,50,18.60
2010,06,13,12,51,18.60
2010,06,13,12,52,18.70
2010,06,13,12,53,18.80
2010,06,13,12,54,18.80
2010,06,13,12,55,18.70
2010,06,13,12,56,18.70
2010,06,13,12,57,18.70
2010,06,13,12,58,18.80
2010,06,13,12,59,18.90
2010,06,13,13,00,18.90
2010,06,13,13,01,18.90
2010,06,13,13,02,18.80
2010,06,13,13,03,18.80
2010,06,13,13,04,18.70
2010,06,13,13,05,18.60
2010,06,13,13,06,18.60
2010,06,13,13,07,18.50
2010,06,13,13,08,18.50
2010,06,13,13,09,18.50
2010,06,13,13,10,18.50
2010,06,13,13,11,18.50
2010,06,13,13,12,18.50
2010,06,13,13,13,18.50
2010,06,13,13,14,18.50
2010,06,13,13,15,18.50
2010,06,13,13,16,18.50
2010,06,13,13,17,18.50
2010,06,13,13,18,18.40
2010,06,13,13,19,18.40
2010,06,13,13,20,18.30
2010,06,13,13,21,18.30
2010,06,13,13,22,18.40
2010,06,13,13,23,18.50
2010,06,13,13,24,18.50
2010,06,13,13,25,18.50
2010,06,13,13,26,18.40
2010,06,13,13,27,18.40
2010,06,13,13,28,18.40
2010,06,13,13,29,18.50
2010,06,13,13,30,18.50
2010,06,13,13,31,18.50
2010,06,13,13,32,18.50
2010,06,13,13,33,18.60
2010,06,13,13,34,18.60
2010,06,13,13,35,18.60
2010,06,13,13,36,18.50
2010,06,13,13,37,18.50
2010,06,13,13,38,18.50
2010,06,13,13,39,18.60
2010,06,13,13,40,18.60
2010,06,13,13,41,18.60
2010,06,13,13,42,18.60
2010,06,13,13,43,18.50
2010,06,13,13,44,18.50
2010,06,13,13,45,18.40
2010,06,13,13,46,18.40
2010,06,13,13,47,18.30
2010,06,13,13,48,18.30
2010,06,13,13,49,18.30
2010,06,13,13,50,18.30
2010,06,13,13,51,18.40
2010,06,13,13,52,18.40
2010,06,13,13,53,18.40
2010,06,13,13,54,18.40
2010,06,13,13,55,18.40
2010,06,13,13,56,18.40
2010,06,13,13,57,18.50
2010,06,13,13,58,18.40
2010,06,13,13,59,18.40
2010,06,13,14,00,18.40
2010,06,13,14,01,18.40
2010,06,13,14,02,18.40
2010,06,13,14,03,18.40
2010,06,13,14,04,18.40
2010,06,13,14,05,18.50
2010,06,13,14,06,18.40
2010,06,13,14,07,18.40
2010,06,13,14,08,18.40
2010,06,13,14,09,18.50
2010,06,13,14,10,18.50
2010,06,13,14,11,18.60
2010,06,13,14,12,18.60
2010,06,13,14,13,18.60
2010,06,13,14,14,18.60
2010,06,13,14,15,18.60
2010,06,13,14,16,18.60
2010,06,13,14,17,18.50
2010,06,13,14,18,18.50
2010,06,13,14,19,18.50
2010,06,13,14,20,18.60
2010,06,13,14,21,18.60
2010,06,13,14,22,18.60
2010,06,13,14,23,18.80
2010,06,13,14,24,18.80
2010,06,13,14,25,18.80
2010,06,13,14,26,18.80
2010,06,13,14,27,18.80
2010,06,13,14,28,18.90
2010,06,13,14,29,18.90
2010,06,13,14,30,18.90
2010,06,13,14,31,18.90
2010,06,13,14,32,18.90
2010,06,13,14,33,19.00
2010,06,13,14,34,19.10
2010,06,13,14,35,19.00
2010,06,13,14,36,18.90
2010,06,13,14,37,18.90
2010,06,13,14,38,19.00
2010,06,13,14,39,18.90
2010,06,13,14,40,18.90
2010,06,13,14,41,18.90
2010,06,13,14,42,18.90
2010,06,13,14,43,18.90
2010,06,13,14,44,18.80
2010,06,13,14,45,18.80
2010,06,13,14,46,18.90
2010,06,13,14,47,18.90
2010,06,13,14,48,18.90
2010,06,13,14,49,19.10
2010,06,13,14,50,19.10
2010,06,13,14,51,19.10
2010,06,13,14,52,19.00
2010,06,13,14,53,18.90
2010,06,13,14,54,18.80
2010,06,13,14,55,18.70
2010,06,13,14,56,18.60
2010,06,13,14,57,18.50
2010,06,13,14,58,18.50
2010,06,13,14,59,18.40
2010,06,13,15,00,18.40
2010,06,13,15,01,18.40
2010,06,13,15,02,18.50
2010,06,13,15,03,18.50
2010,06,13,15,04,18.50
2010,06,13,15,05,18.50
2010,06,13,15,06,18.50
2010,06,13,15,07,18.50
2010,06,13,15,08,18.50
2010,06,13,15,09,18.40
2010,06,13,15,10,18.50
2010,06,13,15,11,18.40
2010,06,13,15,12,18.40
2010,06,13,15,13,18.30
2010,06,13,15,14,18.20
2010,06,13,15,15,18.30
2010,06,13,15,16,18.30
2010,06,13,15,17,18.30
2010,06,13,15,18,18.40
2010,06,13,15,19,18.40
2010,06,13,15,20,18.40
2010,06,13,15,21,18.30
2010,06,13,15,22,18.30
2010,06,13,15,23,18.40
2010,06,13,15,24,18.40
2010,06,13,15,25,18.50
2010,06,13,15,26,18.50
2010,06,13,15,27,18.50
2010,06,13,15,28,18.60
2010,06,13,15,29,18.60
2010,06,13,15,30,18.60
2010,06,13,15,31,18.50
2010,06,13,15,32,18.50
2010,06,13,15,33,18.40
2010,06,13,15,34,18.40
2010,06,13,15,35,18.40
2010,06,13,15,36,18.30
2010,06,13,15,37,18.30
2010,06,13,15,38,18.30
2010,06,13,15,39,18.30
2010,06,13,15,40,18.30
2010,06,13,15,41,18.40
2010,06,13,15,42,18.40
2010,06,13,15,43,18.40
2010,06,13,15,44,18.30
2010,06,13,15,45,18.30
2010,06,13,15,46,18.30
2010,06,13,15,47,18.30
2010,06,13,15,48,18.40
2010,06,13,15,49,18.50
2010,06,13,15,50,18.50
2010,06,13,15,51,18.50
2010,06,13,15,52,18.60
2010,06,13,15,53,18.60
2010,06,13,15,54,18.60
2010,06,13,15,55,18.60
2010,06,13,15,56,18.60
2010,06,13,15,57,18.60
2010,06,13,15,58,18.70
2010,06,13,15,59,18.80
2010,06,13,16,00,18.80
2010,06,13,16,01,18.80
2010,06,13,16,02,18.80
2010,06,13,16,03,18.80
2010,06,13,16,04,18.80
2010,06,13,16,05,18.80
2010,06,13,16,06,18.80
2010,06,13,16,07,18.80
2010,06,13,16,08,18.70
2010,06,13,16,09,18.70
2010,06,13,16,10,18.60
2010,06,13,16,11,18.50
2010,06,13,16,12,18.50
2010,06,13,16,13,18.50
2010,06,13,16,14,18.50
2010,06,13,16,15,18.50
2010,06,13,16,16,18.40
2010,06,13,16,17,18.50
2010,06,13,16,18,18.50
2010,06,13,16,19,18.50
2010,06,13,16,20,18.50
2010,06,13,16,21,18.60
2010,06,13,16,22,18.60
2010,06,13,16,23,18.60
2010,06,13,16,24,18.50
2010,06,13,16,25,18.50
2010,06,13,16,26,18.50
2010,06,13,16,27,18.50
2010,06,13,16,28,18.50
2010,06,13,16,29,18.50
2010,06,13,16,30,18.50
2010,06,13,16,31,18.50
2010,06,13,16,32,18.60
2010,06,13,16,33,18.60
2010,06,13,16,34,18.60
2010,06,13,16,35,18.60
2010,06,13,16,36,18.60
2010,06,13,16,37,18.70
2010,06,13,16,38,18.70
2010,06,13,16,39,18.60
2010,06,13,16,40,18.60
2010,06,13,16,41,18.50
2010,06,13,16,42,18.50
2010,06,13,16,43,18.50
2010,06,13,16,44,18.50
2010,06,13,16,45,18.40
2010,06,13,16,46,18.50
2010,06,13,16,47,18.50
2010,06,13,16,48,18.50
2010,06,13,16,49,18.50
2010,06,13,16,50,18.50
2010,06,13,16,51,18.40
2010,06,13,16,52,18.30
2010,06,13,16,53,18.20
2010,06,13,16,54,18.20
2010,06,13,16,55,18.20
2010,06,13,16,56,18.10
2010,06,13,16,57,18.10
2010,06,13,16,58,18.00
2010,06,13,16,59,17.90
2010,06,13,17,00,17.90
2010,06,13,17,01,17.90
2010,06,13,17,02,17.90
2010,06,13,17,03,17.90
2010,06,13,17,04,17.90
2010,06,13,17,05,17.90
2010,06,13,17,06,17.90
2010,06,13,17,07,17.90
2010,06,13,17,08,17.90
2010,06,13,17,09,17.90
2010,06,13,17,10,17.90
2010,06,13,17,11,17.90
2010,06,13,17,12,17.90
2010,06,13,17,13,17.90
2010,06,13,17,14,17.90
2010,06,13,17,15,17.90
2010,06,13,17,16,17.90
2010,06,13,17,17,17.80
2010,06,13,17,18,17.80
2010,06,13,17,19,17.80